Asteroid 2006 UL217
(Preview)
Solar System
0
432
Orbital elements: 2006 UL217 PHA, Earth MOID = 0.0216 AU Epoch 2008 Nov. 30.0 TT = JDT 2454800.5 MPC M 99.47881 (2000.0) P Q n 0.57607257 Peri. 309.98257 +0.98846113 +0.08919815 a 1.4304892 Node 45.29253 -0.01567791 +0.86413600 e 0.3486917 Incl. 9.91926 -0.15066121 +0.49529048 P 1.71 H 20.8 G 0.1...
Asteroid 2004 SV26
(Preview)
Solar System
0
421
Orbital elements: 2004 SV26 Earth MOID = 0.3224 AU Epoch 2008 Nov. 30.0 TT = JDT 2454800.5 MPC M 37.65718 (2000.0) P Q n 0.27339417 Peri. 37.51085 +0.34469635 -0.93605936 a 2.3511295 Node 32.49869 +0.82631905 +0.26690674 e 0.4480644 Incl. 7.54526 +0.44540011 +0.22924585 P 3.61 H 18.4 G 0.15 U 2 MPE...
Asteroid 2004 QG20
(Preview)
Solar System
0
453
Orbital elements: 2004 QG20 Earth MOID = 0.2959 AU Epoch 2008 Nov. 30.0 TT = JDT 2454800.5 MPC M 57.87048 (2000.0) P Q n 0.27504620 Peri. 208.51064 +0.94953945 -0.31273441 a 2.3417055 Node 169.62889 +0.30704771 +0.91129184 e 0.4497522 Incl. 7.63452 +0.06400412 +0.26785140 P 3.58 H 19.1 G 0.15 U 1 M...
Asteroid 2004 PX27
(Preview)
Solar System
0
467
Orbital elements: 2004 PX27 Earth MOID = 0.2312 AU Epoch 2008 Nov. 30.0 TT = JDT 2454800.5 MPC M 66.27850 (2000.0) P Q n 0.28611647 Peri. 45.29566 +0.93457029 -0.30457018 a 2.2809065 Node 330.91438 +0.10682926 +0.73324593 e 0.4922313 Incl. 22.22739 +0.33936100 +0.60793702 P 3.44 H 18.5 G 0.15 U 2 M...
Persona satellite
(
1 2
)
(Preview)
Mission News
11
3227
The launch of a Persona military reconnaissance satellite aboard a Soyuz Soyuz-2.1b rocket from Site LC-43/4 at the Plesetsk Cosmodrome has been postponed by twenty-four hours. Launch had been scheduled for 18:50 UTC, 25 July 2008. "The state commission led by Space Troops Commander Ma...
Bislee Tier Observatory
(Preview)
General news
0
694
The University of Tasmania has been given a $1.6 million optical telescope from an anonymous UK benefactor. The donation underpins the University's plan to build a state-of-the-art observatory at Bislee Tier near Spring Hill in the Southern Midlands. [url=http://www.abc.net.au/news/stori...
Pueblo Radio and Amateur Astronomy Club
(Preview)
General news
0
457
The Pueblo Radio and Amateur Astronomy Club is now full functioning. A website was developed to demonstrate their involvement in slewing professional telescopes in Norway, Puerto Rico, The Netherlands, New Mexico, Chile, Hawaii and Australia. [url=http://pueblowarriors.wordpress.com/...
Lake Michigan Stone circle
(Preview)
General news
2
675
According to BLDGBLOG, in 2007, Mark Holley, professor of underwater archeology at Northwestern Michigan College, discovered a series of stones arranged in a circle 40 feet below the surface of Lake Michigan. One stone outside the circle seems to have carvings that resemble a mastodonan elephan...
AMiBA
(Preview)
General news
0
772
Title: The AMiBA Hexapod Telescope Mount Authors: Patrick M. Koch (1), Michael Kesteven (2), Hiroaki Nishioka (1), Homin Jiang (1), Kai-Yang Lin (1,3), Keiichi Umetsu (1,4), Yau-De Huang (1), Philippe Raffin (1), Ke-Jung Chen (1), Fabiola Ibanez-Romano (1), Guillaume Chereau (1), Chih-Wei Lo...
2XMM J104608.7-594306
(Preview)
Stars/galaxy News
0
554
Title: The isolated neutron star candidate 2XMM J104608.7-594306 Authors: A. M. Pires (1,2), C. Motch (2), R. Turolla (3,4), A. Treves (5), S. B. Popov (6) ((1) IAG-USP, Brazil, (2) Observatoire Astronomique, Strasbourg, France, (3) Universita di Padova, Italy, (4) Mullard Space Science Labor...
Asteroid 1999 AQ10
(Preview)
Solar System
0
435
The 240 - 530 metre wide asteroid 1999 AQ10 will make a close pass (4.4 Lunar Distances, 0.0113 AU), travelling at 8.3km/s, to the Earth-Moon system on the 18th February 2009. The asteroid will appears as a magnitude 13 'star' at closest approach. See more The Lunar Distance (LD), the distance betwee...
Asteroid 2005 YR3
(Preview)
Solar System
1
617
The 55 - 120 metre wide asteroid 2005 YR3 will make a close pass (27.0 Lunar Distances, 0.0694 AU), travelling at 7.6km/s, to the Earth-Moon system on the 16th February 2009. See more The Lunar Distance (LD), the distance between Earth and the Moon, equals 384,401 km, (or 0.00256 AU).
Asteroid 2009 CU5
(Preview)
Solar System
0
485
Asteroid 2009 CU5 = 92EA147 (NEOCPO) Orbital elements: 2009 CU5 Epoch 2008 Nov. 30.0 TT = JDT 2454800.5 MPC M 74.69525 (2000.0) P Q n 0.33424238 Peri. 255.93070 +0.64964358 -0.63860678 a 2.0563406 Node 141.02090 +0.63504052 +0.75412748 e 0.0560080 Incl. 40.97593 -0.41795546 +0.15320941 P 2.95...
Asteroid 2009 CV5
(Preview)
Solar System
0
511
Asteroid 2009 CV5 = 9C0FC3B (NEOCPO) Orbital elements: 2009 CV5 Earth MOID = 0.0068 AU Epoch 2008 Nov. 30.0 TT = JDT 2454800.5 MPC M 325.66415 (2000.0) P Q n 0.34855484 Peri. 175.78273 -0.98817512 -0.15331746 a 1.9996561 Node 355.39672 +0.13996787 -0.89687843 e 0.4991662 Incl. 1.37105 +0.062601...
Asteroid 2009 CT5
(Preview)
Solar System
0
441
Asteroid 2009 CT5 = 92E0002 (NEOCPO) Orbital elements: 2009 CT5 Earth MOID = 0.1025 AU Epoch 2008 Nov. 30.0 TT = JDT 2454800.5 MPC M 349.13973 (2000.0) P Q n 0.37599775 Peri. 198.56374 +0.99786557 -0.04460403 a 1.9011332 Node 163.76987 +0.05485425 +0.96881962 e 0.8533948 Incl. 9.82532 -0.035430...
«First < 1
2155 2156 2157 2158 2159
2461 > Last» | Page
